Regional Weather Roundup
Issued by NWS State College, PA

Home | Current Version | Previous Version | Graphics & Text | Print | Product List | Glossary On
Versions: 1 2 3 4 5 6 7 8 9 10 11 12 13 14 15 16 17 18 19 20 21 22 23 24 25 26 27 28 29 30 31 32 33 34 35 36 37 38 39 40 41 42 43 44 45 46 47 48 49 50
000
ASUS41 KCTP 032110
RWRCTP

REGIONAL WEATHER ROUNDUP
NATIONAL WEATHER SERVICE STATE COLLEGE PA
500 PM EDT THU SEP 03 2015

Note: "fair" indicates few or no clouds below 12,000 feet with no
significant weather and/or obstructions to visibility.

* = STATION THAT DOES NOT REPORT PRECIPITATION /E.G. RAIN...SNOW...ETC/
    THUNDER OR FOG.

PAZ002>004-007>009-013>016-020>023-029>032-032200-
WESTERN PENNSYLVANIA

CITY           SKY/WX    TMP DP  RH WIND       PRES   REMARKS
ERIE           MOSUNNY   81  66  60 W8        29.93F
MEADVILLE      MOSUNNY   74  58  57 E6        29.98R
FRANKLIN*      MOSUNNY   81  70  69 W5        29.98R
NEW CASTLE     FAIR      87  68  53 CALM      29.94F
BEAVER COUNTY  NOT AVBL
BUTLER*        PTSUNNY   81  66  61 E8        29.95F
PITTSBURGH INT PTSUNNY   89  62  40 NW6       29.92F
PITTSBURGH     PTSUNNY   81  63  54 SE6       29.93F
INDIANA*       SUNNY     86  66  51 CALM      29.97F
LATROBE        MOSUNNY   81  68  65 W9        29.95S
WASHINGTON CO* PTSUNNY   84  66  54 W7        29.95F
$$

PAZ004>006-010>012-017>019-024>028-033>037-041-042-045-046-049>053-032200-
CENTRAL PENNSYLVANIA

CITY           SKY/WX    TMP DP  RH WIND       PRES   REMARKS
BRADFORD       MOSUNNY   82  64  54 VRB7      29.98S
DUBOIS         MOSUNNY   85  64  49 SW7       29.95F
CLEARFIELD     MOSUNNY   85  64  49 N3        29.95S
JOHNSTOWN      PTSUNNY   82  61  48 NW6       29.98F
ALTOONA        PTSUNNY   87  61  41 NW7       29.94F
STATE COLLEGE  SUNNY     86  64  48 NW5       29.93S
WILLIAMSPORT   PTSUNNY   78  70  76 W9        29.87R
SELINSGROVE    MOSUNNY   88  67  49 NW3       29.87S
FT INDIANTOWN  SUNNY     90  65  43 VRB6      29.86F
CAPITAL CITY   MOSUNNY   92  61  35 NW3       29.85F
HARRISBURG     PTSUNNY   92  65  40 W7        29.84F
YORK           SUNNY     89  66  46 NW3       29.86F
$$

PAZ038>040-043-044-047-048-054-055-060>062-067>071-032200-
EASTERN PENNSYLVANIA

CITY           SKY/WX    TMP DP  RH WIND       PRES   REMARKS
SCRANTON       PTSUNNY   82  71  69 CALM      29.89F
MOUNT POCONO   CLOUDY    79  65  62 N12G21    29.95R THUNDER
ALLENTOWN      MOSUNNY   92  66  42 NE6       29.84F
QUAKERTOWN*    PTCLDY    90  66  45 CALM      29.86F
READING        MOSUNNY   91  66  43 VRB5      29.83F
LANCASTER      SUNNY     90  64  42 N3        29.85F
COATESVILLE    PTCLDY    90  64  43 NW7       29.87F
POTTSTOWN      SUNNY     89  66  46 N3        29.85F
BLUE BELL      SUNNY     90  68  48 CALM      29.83F
DOYLESTOWN     SUNNY     90  65  43 VRB5      29.84F
WILLOW GROVE   NOT AVBL
NORTH PHILA    FAIR      94  60  32 N6        29.84F
PHILADELPHIA   MOSUNNY   94  61  33 N12G20    29.83S
$$


USA.gov is the U.S. government's official web portal to all federal, state and local government web resources and services.